Flag for Canada Weather past 2 weeks in Stephenville, Newfoundland and Labrador, Canada

Now
73 °F

Partly sunny.


Feels Like: 74 °F
Forecast: N/A
Wind: 8 mph from Southwest

Location: Stephenville

Current Time: Jul 31, 2014 at 9:26:23 PM

Latest Report: Jul 31, 2014 at 8:30 PM


Visibility: 15 mi

Pressure: 30.17 "Hg

Humidity: 78%

Dew point: 66 °F

Location of StephenvilleLocation

Historic Weather in Stephenville — Graph

°F

Stephenville temperature yesterday

Maximum temperature yesterday: 73 °F (at 3:30 PM)
Minimum temperature yesterday: 66 °F (at 9:30 PM)
Average temperature yesterday: 70 °F

Past Weeks' High & Low Weather Summary

 TemperatureHumidityPressure
High81 °F (Jul 29, 2:30 PM)94% (Jul 18, 12:30 AM)30.28 "Hg (Jul 18, 12:30 AM)
Low54 °F (Jul 20, 5:30 AM)41% (Jul 21, 3:30 PM)29.65 "Hg (Jul 24, 3:30 AM)
Average68 °F74%29.97 "Hg
* Reported Jul 16 8:30 PM — Jul 31 8:30 PM, Stephenville, Weather by CustomWeather, © 2014

Note: Actual official high and low records may vary slightly from our data, if they occured in-between our weather recording intervals... More about our weather records

Advertising

Stephenville weather history for previous 24 hours

 ConditionsComfort  
Time TempWeatherWind HumidityBarometerVisibility
8:30 PM
Jul 31
73 °FPartly sunny.8 mph78%30.17 "Hg15 mi
7:30 PM75 °FPartly sunny.15 mph74%30.16 "Hg15 mi
6:30 PM77 °FBroken clouds.6 mph69%30.16 "Hg15 mi
5:30 PM77 °FPartly sunny.12 mph69%30.16 "Hg15 mi
4:30 PM77 °FPartly sunny.9 mph74%30.16 "Hg15 mi
3:30 PM75 °FPartly sunny.No wind83%30.16 "Hg15 mi
2:30 PM73 °FMore clouds than sun.6 mph83%30.18 "Hg15 mi
1:30 PM75 °FMore clouds than sun.6 mph74%30.17 "Hg15 mi
12:30 PM75 °FPartly sunny.6 mph74%30.18 "Hg15 mi
11:30 AM73 °FSprinkles. Partly sunny.No wind78%30.17 "Hg15 mi
11:15 AMN/ASprinkles.6 mphN/AN/A6 mi
10:30 AM77 °FBroken clouds.6 mph65%30.17 "Hg15 mi
9:30 AM75 °FBroken clouds.6 mph69%30.17 "Hg15 mi
8:30 AM73 °FPartly sunny.6 mph74%30.18 "Hg15 mi
7:30 AM72 °FPartly sunny.6 mph78%30.17 "Hg15 mi
6:30 AM70 °FBroken clouds.6 mph78%30.16 "Hg15 mi
5:30 AM70 °FPassing clouds.6 mph78%30.15 "Hg15 mi
4:30 AM70 °FMostly cloudy.7 mph78%30.16 "Hg15 mi
3:30 AM70 °FMostly cloudy.5 mph78%30.16 "Hg15 mi
2:30 AM68 °FMostly cloudy.6 mph83%30.16 "Hg15 mi
1:30 AM68 °FPassing clouds.No wind78%30.16 "Hg15 mi
12:30 AM66 °FPassing clouds.5 mph83%30.16 "Hg15 mi
11:30 PM
Jul 30
66 °FPassing clouds.6 mph88%30.16 "Hg15 mi
10:30 PM66 °FPassing clouds.5 mph88%30.15 "Hg15 mi
9:30 PM66 °FPassing clouds.No wind88%30.15 "Hg15 mi
Weather by CustomWeather, © 2014

See weather overviewHow to use our weather pages